Location: Lake Sonoma
(38.7200°N, 123.0564°W)
Time: 19:26:17
(UTC-07:00)

Daily predictions for brighter satellites

Satellite Brightness Start Highest point End
(mag) Time Altitude Azimuth Time Altitude Azimuth Time Altitude Azimuth
USA 234 3.6 19:24:59 10° SE 19:31:30 72° SW 19:38:04 10° NW
Cosmos 1271 Rocket 3.4 19:32:10 10° SSW 19:35:52 59° W 19:39:40 10° N
BREEZE M DEB (TANK) 4.2 19:29:39 10° WNW 19:38:35 44° NNE 19:41:48 10° E
ALOS 2.2 19:35:59 10° SSE 19:40:37 68° ENE 19:45:16 10° N
Geosat 4.2 19:36:45 10° SE 19:41:37 52° ENE 19:46:29 10° NNW
COSMO-SKYMED 1 3.7 19:41:47 10° N 19:45:58 48° WNW 19:50:08 10° SSW
FREGAT/IRIS 3.1 19:43:51 10° SE 19:46:42 39° ENE 19:49:34 10° N
USA 81 4.0 19:44:04 10° N 19:49:20 66° E 19:54:34 10° SSE
Cosmos 2150 Rocket 4.1 19:44:40 10° NNW 19:50:02 90° NNE 19:55:28 10° SSE
Cosmos 389 Rocket 3.9 19:46:48 10° SSW 19:50:09 42° WNW 19:53:28 10° N
Cosmos 1758 Rocket 3.9 19:47:35 10° N 19:52:05 76° W 19:56:34 10° S
Cosmos 1340 Rocket 3.4 19:48:57 10° NNW 19:53:00 63° W 19:57:01 10° S
Cosmos 1726 Rocket 4.0 19:50:43 10° SSW 19:55:02 64° W 19:59:21 10° N
Cosmos 841 Rocket 3.5 19:52:32 10° SSW 19:57:41 90° ENE 20:02:51 10° NNE
SL-27 R/B 4.1 19:56:15 10° SE 20:03:38 - NE 19:57:54 16° ESE
CZ-2D R/B 4.3 19:58:42 15° ESE 20:00:59 25° ENE 20:04:10 10° NNE
Cosmos 1937 Rocket 4.1 19:58:19 10° NNW 20:03:32 60° WSW 20:08:40 10° S
Cosmos 2181 Rocket 4.3 20:00:18 10° NNW 20:06:27 69° W 20:12:30 10° S
HJ-1C 3.6 20:03:38 10° SSE 20:06:52 48° ENE 20:10:07 10° N
Milstar 3 Cent rocket 3.6 20:04:49 10° SW 20:08:43 20° S 20:11:02 14° SE
NOSS 3-1 (A) 4.1 20:05:10 10° NNW 20:12:51 70° NE 20:20:55 12° SE
Cosmos 540 Rocket 3.4 20:09:04 10° S 20:14:05 62° ESE 20:19:07 10° NNE
Cosmos 2154 Rocket 4.3 20:10:11 10° SSE 20:15:56 41° E 20:21:45 10° NNE
Cosmos 2074 Rocket 3.9 20:11:44 10° S 20:17:56 85° E 20:24:10 10° N
Cosmos 1943 Rocket 4.0 20:13:19 10° NW 20:18:14 32° WSW 20:23:10 10° SSW
Cosmos 2228 4.0 20:16:01 10° SSW 20:20:15 50° W 20:24:30 10° N
NOSS 3-1 (C) 4.2 20:13:39 10° NW 20:21:25 84° WSW 20:29:56 10° SSE
SJ-6B 2.8 20:19:30 10° SSE 20:23:30 86° WSW 20:27:27 10° NNW
Meteor 1-24 Rocket 3.8 20:19:57 10° N 20:25:56 87° E 20:31:42 10° S
Cosmos 1953 3.7 20:28:52 23° NE 20:28:52 23° NE 20:31:00 10° NNE
Cosmos 2341 Rocket 4.5 20:22:41 10° SSE 20:28:14 36° E 20:33:50 10° NNE
Resurs 01 Rocket 1.8 20:29:29 28° SE 20:31:30 50° ENE 20:35:47 10° N
Cosmos 1356 Rocket 4.1 20:28:56 10° NNW 20:33:10 59° W 20:37:23 10° S
H-2A R/B 3.5 20:31:00 10° S 20:34:36 51° W 20:38:17 10° NNW
Cosmos 1812 Rocket 3.5 20:30:13 10° S 20:34:37 69° E 20:39:04 10° NNE
GP-B 3.1 20:31:51 10° NNE 20:36:13 53° E 20:38:34 25° SSE
BREEZE-M DEB 3.9 20:33:48 10° WNW 20:40:38 44° SW 20:42:01 27° S
Spot 2 Rocket 3.4 20:45:18 34° SE 20:47:25 65° ENE 20:52:26 10° N
Nadezhda 3 Rocket 3.9 20:42:09 10° N 20:48:25 68° E 20:52:40 21° SSE
Meteor 2-8 Rocket 4.5 20:45:07 10° N 20:51:16 80° W 20:57:20 10° S
ISS -3.2 20:49:58 10° SW 20:52:28 50° SW 20:52:28 50° SW
Cosmos 292 Rocket 3.6 20:50:30 10° S 20:55:18 69° ESE 21:00:09 10° NNE
Cosmos 2285 Rocket 4.2 20:50:16 10° S 20:56:18 45° E 21:02:22 10° NNE
ATLAS CENTAUR R/B 3.7 20:45:18 10° NW 20:56:42 55° WSW 20:59:18 26° S
Okean 3 Rocket 4.4 20:58:40 10° N 21:01:46 38° NNE 21:01:46 38° NNE
Cosmos 1356 4.1 21:00:50 10° NNW 21:03:50 54° WNW 21:03:50 54° WNW
OAO 3 Copernicus 4.5 21:00:45 10° W 21:05:41 55° S 21:05:53 54° S
Cosmos 783 Rocket 4.4 21:00:50 10° SSW 21:06:02 83° WNW 21:11:16 10° NNE
Cosmos 1295 Rocket 4.3 21:05:45 27° S 21:09:12 69° E 21:15:15 10° NNE
Cosmos 1674 4.0 21:05:49 10° N 21:07:54 32° N 21:07:54 32° N
Cosmos 1758 3.7 21:10:49 51° SW 21:11:32 61° W 21:15:30 10° N
Cosmos 1125 Rocket 4.2 21:10:01 10° NNW 21:15:09 51° WSW 21:17:45 27° SSW
Cosmos 1809 Rocket 4.3 21:14:58 62° ESE 21:15:24 64° E 21:21:27 10° NNE
SL-8 Rocket 4.1 21:20:05 53° ENE 21:20:05 53° ENE 21:25:11 10° NNE
Envisat 3.2 21:18:25 46° SSW 21:19:49 66° WSW 21:24:54 10° NNW
Cosmos 2369 4.0 21:18:24 10° NNW 21:23:09 50° NNE 21:23:09 50° NNE
Cosmos 1939 Rocket 4.4 21:26:42 29° NNW 21:26:42 29° NNW 21:28:44 10° NNW
Gblst 52 Del rocket 4.5 21:17:42 10° NW 21:25:08 77° NE 21:25:56 68° E
Meteor 1-21 Rocket 4.2 21:20:59 10° NNW 21:26:43 79° W 21:27:28 67° SSW
MOS 1-B Rocket 4.4 21:24:14 25° S 21:27:49 60° WSW 21:33:26 10° NNW
Meteor 2-15 4.4 21:28:42 10° N 21:34:03 67° NNE 21:34:03 67° NNE
H-2A R/B 4.4 21:39:55 12° NNE 21:39:55 12° NNE 21:40:23 10° NNE
ATLAS 2AS CENTAUR R/B 3.0 21:47:02 10° NNW 21:54:31 64° NE 21:54:31 64° NE
Cosmos 2278 4.4 21:52:51 10° NNW 21:56:56 49° NNW 21:56:56 49° NNW
Resurs 01 Rocket 4.4 22:07:04 12° WSW 22:08:14 14° W 22:10:27 10° WNW
Cosmos 1697 Rocket 4.3 22:14:53 10° NNW 22:17:38 30° NNW 22:17:38 30° NNW
Cosmos 1980 Rocket 4.1 22:16:37 10° NNW 22:18:39 22° N 22:18:39 22° N
FALCON 9 R/B 4.2 22:22:32 10° W 22:23:54 22° WSW 22:23:54 22° WSW
